Regional Weather Roundup
Issued by NWS

Home | Current Version | Previous Version | Graphics & Text | Print | Product List | Glossary On
Versions: 1 2 3 4 5 6 7 8 9 10 11 12 13 14 15 16 17 18 19 20 21 22 23 24 25 26 27 28 29 30 31 32 33 34 35 36 37 38 39 40 41 42 43 44 45 46 47 48 49 50
585
ASUS45 KBOU 262007
RWRCO

WEATHER ROUNDUP FOR COLORADO
NATIONAL WEATHER SERVICE DENVER/BOULDER CO
200 PM MDT TUE SEP 26 2017

NOTE: "FAIR" INDICATES FEW OR NO CLOUDS BELOW 12000 FEET WITH NO
SIGNIFICANT WEATHER AND/OR OBSTRUCTIONS TO VISIBILITY.

COZ001>005-013-030-031-262100-
...NORTHWEST COLORADO...

CITY           SKY/WX    TMP DP  RH WIND       PRES   REMARKS
CRAIG          FAIR      60  20  21 SW6       30.16F
HAYDEN         FAIR      55  24  30 SW8       30.18F
MEEKER         FAIR      61  27  27 SW6       30.14F
RABBIT EARS PA FAIR      45  27  49 NW8       30.29F
STEAMBOAT SPGS FAIR      55  20  25 CALM      30.17F
WALDEN         FAIR      50  23  34 NW7       30.23F
$$

COZ006>008-011-262100-
...WEST CENTRAL VALLEYS...

CITY           SKY/WX    TMP DP  RH WIND       PRES   REMARKS
GRAND JUNCTION FAIR      66  29  24 VRB3      30.07F
MONTROSE       FAIR      61  30  31 NW8       30.11F
EAGLE          FAIR      61  22  22 VRB5      30.13F
RIFLE          FAIR      63  25  23 SW5       30.09F
DELTA          FAIR      67  23  18 CALM      30.08
NUCLA          FAIR      64  23  20 N10       30.12
$$

COZ017>023-064>068-262100-
...SOUTHWEST COLORADO...

CITY           SKY/WX    TMP DP  RH WIND       PRES   REMARKS
DURANGO        FAIR      64  38  38 MISG      30.11F
CORTEZ         PTSUNNY   68  39  34 VRB6      30.07F
PAGOSA SPRINGS FAIR      62  30  30 CALM      30.17
TELLURIDE      PTSUNNY   58  21  24 S7        30.21
WOLF CREEK PAS CLOUDY    37  30  75 S10G16    30.40F
$$

COZ009-010-012-014-032>034-037-058>063-262100-
...CENTRAL COLORADO...

CITY           SKY/WX    TMP DP  RH WIND       PRES   REMARKS
ASPEN          FAIR      63  19  18 N8        30.13F
BUENA VISTA    FAIR      59  28  31 E9        30.18
COPPER MTN     FAIR      52   9  17 SW7       30.34F
BERTHOUD PASS  FAIR      32  23  69 SE15G22   30.38S WCI  22
COTTONWOOD PAS FAIR      61  32  33 E7        30.26F
GUNNISON       FAIR      63  15  15 NW7       30.12F
KREMMLING      FAIR      66  10  11 CALM      30.16F
LEADVILLE      FAIR      52  11  19 S8        30.21F
MONARCH PASS   PTSUNNY   41  30  65 E5        30.45F
SALIDA         FAIR      61  33  35 SE13G20   30.23
SUNLIGHT       FAIR      43  23  45 W3        30.33S
WILKERSON PASS FAIR      46  19  34 CALM      30.37F
$$

COZ069>075-262100-
...SAN LUIS VALLEY/SANGRE DE CRISTO MOUNTAINS...

CITY           SKY/WX    TMP DP  RH WIND       PRES   REMARKS
ALAMOSA        FAIR      63  32  31 S9        30.14F
DEL NORTE      PTSUNNY   57  30  35 CALM      30.19F
LA VETA PASS   FOG       43  39  87 N8        30.42S VSB 1/4
SAGUACHE       FAIR      61  30  31 SE9       30.17F
$$

COZ035-036-038>040-262100-
...NORTHERN COLORADO FRONT RANGE...

CITY           SKY/WX    TMP DP  RH WIND       PRES   REMARKS
DENVER INTL AP PTSUNNY   58  42  55 N6        30.17F
DMNS CITY PARK   N/A     59  39  48 NE8       30.17F
AURORA         PTSUNNY   59  42  53 CALM      30.18F
FRONT RANGE AP PTSUNNY   59  45  58 E8        30.19F
ERIE MUNI ARPT CLOUDY    58  40  51 CALM      30.23F
BOULDER MUN AP PTSUNNY   59  37  44 NE5       30.18F
CENTENNIAL     PTSUNNY   57  42  57 N9        30.17F
BROOMFIELD     PTSUNNY   57  39  51 CALM      30.19F
FORT COLLINS   CLOUDY    59  41  51 E8        30.18F
LONGMONT       CLOUDY    61  41  47 SE3       30.20
$$

COZ041-046-047-076>085-087-088-262100-
...PIKES PEAK/PALMER DIVIDE AND SOUTHERN FOOTHILLS...

CITY           SKY/WX    TMP DP  RH WIND       PRES   REMARKS
COLO. SPRINGS  PTSUNNY   55  42  61 VRB6      30.21F
A. F. ACADEMY  CLOUDY    51  41  70 S7        30.20F
SCHRIEVER AFB  PTSUNNY   57  39  52 S13G18    30.20F
CHEYENNE MTN   CLOUDY    46  46  99 SE8       30.16F
ELLICOTT       CLOUDY   N/A N/A N/A S8        30.20F
FALCON         CLOUDY    51  39  63 S5        30.23
FORT CARSON    PTSUNNY   55  42  60 SE10      30.18F
LIMON            N/A    N/A N/A N/A MISG      30.18F
MONUMENT HILL  FAIR      52  37  58 S5        30.22F
CANON CITY     CLOUDY    59  46  63 E7        30.17F
WALSENBURG     CLOUDY    55  46  71 NE3       30.18F
TRINIDAD       CLOUDY    57  48  72 E7        30.17F
$$

COZ042>045-048>051-090-091-262100-
...NORTHEAST COLORADO...

CITY           SKY/WX    TMP DP  RH WIND       PRES   REMARKS
GREELEY ARPT   PTSUNNY   61  40  45 VRB6      30.18F
AKRON          FAIR      61  39  44 S5        30.17F
BURLINGTON     FAIR      63  46  54 E9        30.16F
WRAY           FAIR      66  37  34 NE3       30.16
YUMA           FAIR      61  36  39 E7        30.16F
STERLING       FAIR      64  43  45 SW3       30.15F
HOLYOKE        FAIR      66  36  32 NE3       30.16F
FORT MORGAN    FAIR      63  37  38 SW3       30.18
$$

COZ086-089-092>099-262100-
...SOUTHEAST COLORADO...

CITY           SKY/WX    TMP DP  RH WIND       PRES   REMARKS
PUEBLO         CLOUDY    59  45  59 CALM      30.16F
LA JUNTA       FAIR      63  46  54 MISG      30.14F
LAMAR          FAIR      61  46  57 NE5       30.14F
SPRINGFIELD      N/A     59  48  67 E7        30.17F
$$




USA.gov is the U.S. government's official web portal to all federal, state and local government web resources and services.